sat.trackr.live / text

‹ back to catalog

KUIPER-00196

NORAD 67144 · 2025-301M

PAYLOAD ACTIVE UNKNOWN

§ Identity

Operator
Country
US
Launch date
2025-12-16
Launch site
AFETR
Launch vehicle
Mass (kg)
RCS (m²)

External: N2YO · Heavens-Above · Gunter

§ Orbital elements

Epoch: 2026-05-25T03:37:10.701120Z

Period
94.21 min
Inclination
51.8774°
Eccentricity
0.0001395
Mean motion
15.28443826 rev/d
Perigee alt
479.5 km
Apogee alt
481.4 km
Semi-major
6,858.6 km
B*
6.5795e-4
RAAN
55.1633°
Arg perigee
251.8413°
Mean anomaly
108.2418°
Rev number
2,550

§ Raw data

KUIPER-001961 67144U 25301M   26145.15081830  .00018170  00000+0  65795-3 0  99982 67144  51.8774  55.1633 0001395 251.8413 108.2418 15.28443826 25500

JSON: /api/v1/satellites/67144 · /tle

For live sub-satellite position, see the globe view (requires WebGL).

§ Visibility from observer

Set your observer location to see the next 7 days of passes ≥ 10°. The values pass through the URL so the page stays shareable.

No JS? Fill the form by hand. The geolocation button needs JavaScript.